Tracking 29790 objects as of 11-Oct-2024
HD Live streaming from Space Station
objects crossing your sky now

STARLINK 1063

Track STARLINK 1063 now!
10-day predictions
STARLINK 1063 is classified as:


NORAD ID: 44768
Int'l Code: 2019-074BH
Perigee: 553.4 km
Apogee: 555.5 km
Inclination: 53.1 °
Period: 95.6 minutes
Semi major axis: 6925 km
RCS: Unknown
Launch date: November 11, 2019
Source: United States (US)
Launch site: AIR FORCE EASTERN TEST RANGE (AFETR)
Your satellite tracking list
Your tracking list is empty




NASA's NSSDC Master Catalog

Two Line Element Set (TLE):
1 44768U 19074BH  24285.50168082 -.00041071  00000-0 -27572-2 0  9991
2 44768  53.0542  14.8968 0001499 118.0594 242.0547 15.06361325270866
Source of the keplerian elements: AFSPC